User: anonymous
Location: Ostrava
(49.8330°N, 18.2830°E)
Time: 14:40:12
(UTC+02:00)
Language:

Cosmos 1263 Rocket - Orbit

View from above orbital plane
View from above orbital plane
View from above satellite
View from above satellite

Ground track
Ground track

The orbit data is extracted from the following two-line orbital elements,

1 12389U 81033B   14231.07879632  .00022892  00000-0  33329-3 0   471
2 12389 082.8724 046.8527 0200185 247.6811 253.9830 15.35697589719378
Epoch (UTC): 19 August 2014 01:53:28
Eccentricity: 0.0200185
inclination: 82.8724°
perigee height: 322 km
apogee height: 596 km
right ascension of ascending node: 46.8527°
argument of perigee: 247.6811°
revolutions per day: 15.35697589
mean anomaly at epoch: 253.9830°
orbit number at epoch: 71937

The dashed part of the orbit path shows where the satellite is in the earth's shadow,  

DLR